GW2027 Weather Reports


time (UTC)temp
F
wind
direction
speed
knots
gust
knots
rain 1hr
in
rain 24hr
in
rain mn
in
humidity
%
barometer
mb
20260504215223 73 142 4.3 5.2 0.00 0.00 0.00 29 1010.5
20260504214718 73 116 4.3 6.1 0.00 0.00 0.00 29 1010.5
20260504214215 73 114 6.1 7.8 0.00 0.00 0.00 28 1010.5
20260504213712 73 184 1.7 2.6 0.00 0.00 0.00 28 1010.5
20260504213208 74 46 3.5 3.5 0.00 0.00 0.00 28 1010.5
20260504212705 74 165 2.6 2.6 0.00 0.00 0.00 27 1010.5
20260504212202 74 144 4.3 7.0 0.00 0.00 0.00 27 1010.6
20260504211659 75 131 5.2 7.0 0.00 0.00 0.00 26 1010.5
20260504211155 77 144 0.9 1.7 0.00 0.00 0.00 25 1010.4
20260504210653 77 173 0.9 0.9 0.00 0.00 0.00 22 1010.6
20260504210149 77 224 0.0 0.0 0.00 0.00 0.00 22 1010.5
20260504205647 77 225 1.7 1.7 0.00 0.00 0.00 21 1010.4
20260504205144 77 154 1.7 2.6 0.00 0.00 0.00 20 1010.5
20260504204643 77 211 0.9 1.7 0.00 0.00 0.00 21 1010.7
20260504204141 77 215 1.7 1.7 0.00 0.00 0.00 21 1010.5
20260504203639 77 247 3.5 3.5 0.00 0.00 0.00 21 1010.7
20260504203137 77 239 3.5 3.5 0.00 0.00 0.00 21 1010.8
20260504202637 77 225 1.7 1.7 0.00 0.00 0.00 21 1010.7
20260504202134 76 163 0.9 1.7 0.00 0.00 0.00 23 1010.8
20260504201631 76 175 4.3 5.2 0.00 0.00 0.00 22 1010.8
20260504201129 76 238 3.5 3.5 0.00 0.00 0.00 23 1010.9
20260504200626 76 233 4.3 5.2 0.00 0.00 0.00 23 1011.1
20260504200122 77 163 1.7 2.6 0.00 0.00 0.00 23 1011.0
20260504195618 76 186 0.9 1.7 0.00 0.00 0.00 21 1011.1
20260504195114 77 240 2.6 3.5 0.00 0.00 0.00 23 1011.2
20260504194611 76 186 0.9 1.7 0.00 0.00 0.00 22 1011.3
20260504194107 75 183 0.9 0.9 0.00 0.00 0.00 22 1011.5
20260504193603 76 243 7.0 11.3 0.00 0.00 0.00 21 1011.5
20260504193102 76 266 4.3 5.2 0.00 0.00 0.00 22 1011.6
20260504192600 75 217 0.9 2.6 0.00 0.00 0.00 23 1011.6
20260504192058 74 244 3.5 3.5 0.00 0.00 0.00 23 1011.6
20260504191556 74 279 5.2 6.1 0.00 0.00 0.00 23 1011.8
20260504191051 75 249 7.0 8.7 0.00 0.00 0.00 23 1011.9
20260504190548 75 259 4.3 5.2 0.00 0.00 0.00 22 1011.9
20260504190044 74 270 7.8 8.7 0.00 0.00 0.00 24 1012.0
20260504185541 75 222 0.9 1.7 0.00 0.00 0.00 23 1012.0
20260504185038 75 181 1.7 1.7 0.00 0.00 0.00 22 1012.2
20260504184533 75 221 0.9 2.6 0.00 0.00 0.00 22 1012.4
20260504184029 74 257 3.5 6.1 0.00 0.00 0.00 22 1012.3
20260504183526 75 171 2.6 2.6 0.00 0.00 0.00 21 1012.3
20260504183024 74 264 3.5 6.1 0.00 0.00 0.00 22 1012.5
20260504182520 75 114 0.9 1.7 0.00 0.00 0.00 21 1012.5
20260504182018 74 196 1.7 1.7 0.00 0.00 0.00 21 1012.8
20260504181515 74 193 2.6 3.5 0.00 0.00 0.00 21 1012.4
20260504181014 73 222 2.6 2.6 0.00 0.00 0.00 21 1012.5
20260504180512 73 264 3.5 6.1 0.00 0.00 0.00 23 1012.6
20260504180010 73 251 4.3 5.2 0.00 0.00 0.00 22 1012.6
20260504175507 74 261 7.0 8.7 0.00 0.00 0.00 21 1012.9
20260504175004 73 229 1.7 2.6 0.00 0.00 0.00 21 1013.0
20260504174502 75 253 4.3 7.0 0.00 0.00 0.00 21 1012.9
20260504173959 73 170 0.9 0.9 0.00 0.00 0.00 22 1013.0
20260504173455 74 262 3.5 3.5 0.00 0.00 0.00 21 1013.0
20260504172953 74 193 0.0 0.9 0.00 0.00 0.00 21 1013.2
20260504172448 73 118 0.9 0.9 0.00 0.00 0.00 20 1013.2
20260504171945 73 233 0.9 1.7 0.00 0.00 0.00 21 1013.3
20260504171443 72 243 1.7 2.6 0.00 0.00 0.00 21 1013.4
20260504170939 72 245 6.1 7.8 0.00 0.00 0.00 21 1013.4
20260504170436 72 251 4.3 5.2 0.00 0.00 0.00 22 1013.1
20260504160355 70 246 1.7 2.6 0.00 0.00 0.00 24 1013.9
20260504150820 68 273 3.5 3.5 0.00 0.00 0.00 22 1014.5
20260504150316 68 257 3.5 3.5 0.00 0.00 0.00 23 1014.7
20260504141246 64 243 2.6 2.6 0.00 0.00 0.00 29 1015.2
20260504140742 63 222 0.0 0.0 0.00 0.00 0.00 32 1014.9
20260504140238 64 256 4.3 6.1 0.00 0.00 0.00 32 1015.0
20260504130707 58 251 3.5 3.5 0.00 0.00 0.00 38 1015.1
20260504130203 58 267 4.3 5.2 0.00 0.00 0.00 38 1015.1
20260504120127 54 247 1.7 2.6 0.00 0.00 0.00 43 1015.4
20260504110554 50 218 0.0 0.0 0.00 0.00 0.00 51 1015.7
20260504100516 50 200 0.0 0.0 0.00 0.00 0.00 51 1015.7
20260504081909 50 216 0.0 0.0 0.00 0.00 0.00 48 1016.1
20260504081406 50 219 0.0 0.0 0.00 0.00 0.00 47 1016.3
20260504080902 50 220 0.0 0.0 0.00 0.00 0.00 47 1016.2
20260504080359 50 220 0.0 0.9 0.00 0.00 0.00 46 1015.9
20260504070326 49 216 0.0 0.0 0.00 0.00 0.00 46 1016.3
20260504060247 48 216 0.0 0.0 0.00 0.00 0.00 47 1016.4
20260504050715 46 216 0.0 0.0 0.00 0.00 0.00 47 1016.3
20260504050212 46 216 0.0 0.0 0.00 0.00 0.00 47 1016.2
20260504045709 47 216 0.0 0.0 0.00 0.00 0.00 46 1016.4
20260504045209 47 216 0.0 0.0 0.00 0.00 0.00 46 1016.4
20260504044708 47 216 0.0 0.0 0.00 0.00 0.00 46 1016.4
20260504044204 47 216 0.0 0.0 0.00 0.00 0.00 47 1016.3
20260504043701 46 216 0.0 0.0 0.00 0.00 0.00 47 1016.3
20260504043158 46 216 0.0 0.0 0.00 0.00 0.00 47 1016.3
20260504042655 46 216 0.0 0.0 0.00 0.00 0.00 46 1016.3
20260504042152 46 216 0.0 0.0 0.00 0.00 0.00 46 1016.4
20260504041648 47 216 0.0 0.0 0.00 0.00 0.00 45 1016.3
20260504041144 47 216 0.0 0.0 0.00 0.00 0.00 45 1016.4
20260504040641 47 216 0.0 0.0 0.00 0.00 0.00 45 1016.4
20260504040138 48 216 0.0 0.0 0.00 0.00 0.00 44 1016.3
20260504035635 48 217 0.0 0.0 0.00 0.00 0.00 44 1016.2
20260504035131 48 217 0.0 0.0 0.00 0.00 0.00 43 1016.2
20260504034629 47 222 0.0 0.0 0.00 0.00 0.00 45 1016.2
20260504034126 47 213 0.0 0.0 0.00 0.00 0.00 46 1016.0
20260504033624 47 215 0.0 0.0 0.00 0.00 0.00 45 1016.0
20260504033121 47 215 0.0 0.0 0.00 0.00 0.00 46 1015.8
20260504032618 48 215 0.0 0.0 0.00 0.00 0.00 46 1015.8
20260504032115 48 216 0.0 0.0 0.00 0.00 0.00 46 1016.0
20260504031612 48 216 0.0 0.0 0.00 0.00 0.00 45 1015.8
20260504031108 48 216 0.0 0.0 0.00 0.00 0.00 45 1015.7
20260504030605 48 216 0.0 0.0 0.00 0.00 0.00 45 1015.7
20260504030101 48 215 0.0 0.0 0.00 0.00 0.00 45 1015.8
20260504025558 49 215 0.0 0.0 0.00 0.00 0.00 44 1015.8
20260504025055 49 215 0.0 0.0 0.00 0.00 0.00 43 1015.7
20260504024552 49 216 0.0 0.0 0.00 0.00 0.00 43 1015.7
20260504024049 49 216 0.0 0.0 0.00 0.00 0.00 42 1015.7
20260504023546 49 216 0.0 0.0 0.00 0.00 0.00 43 1015.7
20260504023042 49 216 0.0 0.0 0.00 0.00 0.00 42 1015.8
20260504022537 50 216 0.0 0.0 0.00 0.00 0.00 41 1015.9
20260504022034 50 216 0.0 0.0 0.00 0.00 0.00 40 1015.8
20260504021532 50 216 0.0 0.0 0.00 0.00 0.00 40 1015.8
20260504021028 50 217 0.0 0.0 0.00 0.00 0.00 40 1015.7
20260504020525 50 218 0.0 0.0 0.00 0.00 0.00 39 1015.7
20260504020022 50 218 0.0 0.0 0.00 0.00 0.00 39 1015.7
20260504015518 51 218 0.0 0.0 0.00 0.00 0.00 38 1015.5
20260504015014 51 218 0.0 0.0 0.00 0.00 0.00 38 1015.6
20260504014510 51 218 0.0 0.0 0.00 0.00 0.00 37 1015.6
20260504014008 51 218 0.0 0.0 0.00 0.00 0.00 36 1015.5
20260504013506 51 218 0.0 0.0 0.00 0.00 0.00 35 1015.7
20260504013001 51 218 0.0 0.0 0.00 0.00 0.00 35 1015.8
20260504012500 52 218 0.0 0.0 0.00 0.00 0.00 34 1015.5
20260504011957 52 218 0.0 0.0 0.00 0.00 0.00 33 1015.5
20260504011453 53 218 0.0 0.0 0.00 0.00 0.00 32 1015.5
20260504010949 53 218 0.0 0.0 0.00 0.00 0.00 32 1015.3
20260504010446 53 218 0.0 0.0 0.00 0.00 0.00 31 1015.4
20260504005942 54 218 0.0 0.0 0.00 0.00 0.00 30 1015.3
20260504005439 55 218 0.0 0.0 0.00 0.00 0.00 29 1015.5
20260504004936 55 218 0.0 0.0 0.00 0.00 0.00 29 1015.4
20260504004434 56 221 0.0 0.0 0.00 0.00 0.00 27 1015.3
20260504003930 56 221 0.0 0.0 0.00 0.00 0.00 27 1015.2
20260504003427 57 222 0.0 0.0 0.00 0.00 0.00 26 1015.1
20260504002924 58 223 0.0 0.0 0.00 0.00 0.00 26 1015.0
20260504002420 58 225 0.0 0.0 0.00 0.00 0.00 24 1015.1
20260504001918 59 232 0.9 0.9 0.00 0.00 0.00 23 1015.1
20260504001416 59 234 0.9 0.9 0.00 0.00 0.00 23 1014.9
20260504000912 59 239 1.7 1.7 0.00 0.00 0.00 23 1014.8
20260504000409 60 235 0.9 1.7 0.00 0.00 0.00 22 1014.7
20260503235906 60 236 0.9 0.9 0.00 0.00 0.00 22 1014.8
20260503235404 60 238 0.9 1.7 0.00 0.00 0.00 21 1014.8
20260503234901 60 257 3.5 3.5 0.00 0.00 0.00 21 1014.8
20260503234359 61 254 3.5 3.5 0.00 0.00 0.00 20 1014.6
20260503233856 61 228 1.7 2.6 0.00 0.00 0.00 20 1014.5
20260503233353 61 254 2.6 2.6 0.00 0.00 0.00 19 1014.4
20260503232849 61 236 1.7 1.7 0.00 0.00 0.00 20 1014.8
20260503232347 62 261 3.5 3.5 0.00 0.00 0.00 20 1014.5
20260503231844 62 246 2.6 2.6 0.00 0.00 0.00 19 1014.5
20260503231341 62 264 2.6 3.5 0.00 0.00 0.00 19 1014.2
20260503230837 62 275 4.3 5.2 0.00 0.00 0.00 18 1014.4
20260503230334 63 233 1.7 2.6 0.00 0.00 0.00 19 1014.5
20260503225832 63 244 2.6 2.6 0.00 0.00 0.00 18 1014.3
20260503225328 63 260 4.3 5.2 0.00 0.00 0.00 18 1014.6
20260503224824 63 265 3.5 3.5 0.00 0.00 0.00 17 1014.5
20260503224321 62 255 2.6 3.5 0.00 0.00 0.00 18 1014.6
20260503223819 62 257 2.6 2.6 0.00 0.00 0.00 18 1014.6
20260503223317 62 236 6.1 7.8 0.00 0.00 0.00 18 1014.4
20260503222812 62 253 5.2 7.0 0.00 0.00 0.00 17 1014.4
20260503222311 63 270 10.4 12.2 0.00 0.00 0.00 17 1014.5
20260503221809 63 268 6.1 7.0 0.00 0.00 0.00 17 1014.4
20260503221307 63 228 2.6 3.5 0.00 0.00 0.00 17 1014.6
20260503220802 63 254 5.2 6.1 0.00 0.00 0.00 17 1014.6
20260503220300 63 240 3.5 5.2 0.00 0.00 0.00 17 1014.6
20260503215756 63 270 6.1 7.8 0.00 0.00 0.00 17 1014.6